Track COSMOS 2441 now! 10-day predictions COSMOS 2441 is classified as:
1 33272U 08037A 26251.82430265 .00000134 00000-0 43236-4 0 9991 2 33272 98.3350 198.1590 0017390 83.4010 276.9165 14.53296180960196